Regional Weather Roundup
Issued by NWS

Home | Current Version | Previous Version | Graphics & Text | Print | Product List | Glossary Off
Versions: 1 2 3 4 5 6 7 8 9 10 11 12 13 14 15 16 17 18 19 20 21 22 23 24 25 26 27 28 29 30 31 32 33 34 35 36 37 38 39 40 41 42 43 44 45 46 47 48 49 50

000
ASUS43 KDMX 042303
RWRIA

WEATHER ROUNDUP FOR IOWA
NATIONAL WEATHER SERVICE DES MOINES IA
600 PM CDT WED MAY 04 2016

NOTE: "FAIR" INDICATES FEW OR NO CLOUDS BELOW 12,000 FEET WITH NO
SIGNIFICANT WEATHER AND/OR OBSTRUCTIONS TO VISIBILITY.

* - THESE STATIONS ARE NOT NWS STATIONS...THUS NOT UNDER NWS
QUALITY CONTROL.  THEY ALSO DO NOT REPORT WEATHER SUCH
AS PRECIPITATION OR FOG.

IAZ001>003-012>014-020>022-031>034-043>046-050000-
   NORTHWEST IOWA

CITY           SKY/WX    TMP DP  RH WIND       PRES   REMARKS
CARROLL *      SUNNY     66  36  32 NW14G24   29.97F
CHEROKEE *     SUNNY     67  36  31 NW13      29.98F
DENISON *      SUNNY     66  37  34 N14       29.97F
LE MARS *      SUNNY     68  36  30 NW10G16   30.01S
ORANGE CITY *  SUNNY     68  36  30 N8G18     30.00S
SHELDON *      SUNNY     70  32  24 N18       29.98S
SIOUX CITY     SUNNY     68  42  38 NW13      30.01S
SPENCER        SUNNY     67  33  28 NW22G29   29.98F
STORM LAKE *   SUNNY     66  34  30 N15G25    29.99S
$$

IAZ055>058-069>071-079>083-090>094-050000-
   SOUTHWEST IOWA

CITY           SKY/WX    TMP DP  RH WIND       PRES   REMARKS
ATLANTIC *     SUNNY     66  36  32 N16G26    29.99S
AUDUBON *      SUNNY     66  34  30 NW15      29.99F
CLARINDA *       N/A     68  34  28 MISG      30.00S
COUNCIL BLFS * SUNNY     66  37  34 NW13G23   30.01S
CRESTON *      SUNNY     64  36  34 NW16G26   29.99R
HARLAN  *      SUNNY     68  34  28 N17G26    30.02F
LAMONI         SUNNY     64  37  36 N14G23    29.96S
RED OAK *      SUNNY     68  34  28 N14G26    29.99S
SHENANDOAH *   SUNNY     68  37  32 N13G22    30.00S
$$

IAZ047>049-059>061-072>074-084-050000-
   CENTRAL IOWA

CITY           SKY/WX    TMP DP  RH WIND       PRES   REMARKS
AMES           SUNNY     67  33  28 N21G28    29.93F
ANKENY *       SUNNY     66  32  28 N17G26    29.94S
BOONE *        SUNNY     64  36  34 N22       29.94S
CHARITON *     SUNNY     64  32  29 N17G26    29.94S
DES MOINES     MOSUNNY   67  30  25 NW18G30   29.94F
GRINNELL*      SUNNY     66  28  24 NW20G31   29.91F
KNOXVILLE *    SUNNY     66  30  26 NW20      29.91F
MARSHALLTOWN   SUNNY     66  31  27 NW17G31   29.91S
NEWTON *       SUNNY     66  30  26 NW20G29   29.91F
PERRY *          N/A     66  34  30 NW20      29.96F
$$

IAZ004>006-015-016-023>025-035-036-050000-
   NORTH CENTRAL IOWA

CITY           SKY/WX    TMP DP  RH WIND       PRES   REMARKS
ALGONA *       SUNNY     68  32  26 N20G28    29.95S
CLARION *      SUNNY     66  30  26 NW24G32   29.93S
ESTHERVILLE    SUNNY     66  33  29 N14G26    29.96F
FORT DODGE *   SUNNY     66  36  32 NW14G21   29.96F
MASON CITY     SUNNY     65  31  28 N22       29.93S
FOREST CITY *  SUNNY     63  30  29 N22G28    29.93S
WEBSTER CITY * SUNNY     68  32  26 N18G30    29.92F
IOWA FALLS *     N/A     68  32  26 NW20G25   29.93S
$$

IAZ007>011-017>019-026>030-037>042-050>054-066-050000-
   NORTHEAST IOWA

CITY           SKY/WX    TMP DP  RH WIND       PRES   REMARKS
CEDAR RAPIDS   SUNNY     64  33  31 N20       29.87S
CHARLES CITY * SUNNY     64  27  24 N21G29    29.90F
CLINTON *      PTSUNNY   60  36  40 N15       29.86R
DECORAH *      MOSUNNY   63  30  29 NW20G26   29.88S
DUBUQUE        PTSUNNY   60  33  36 N18G29    29.86R
MONTICELLO *   PTSUNNY   64  32  29 N22G30    29.87S
OELWEIN *      SUNNY     64  28  25 N21G29    29.89S
WATERLOO       SUNNY     65  30  27 N20G33    29.89S
$$

IAZ064-065-067-068-078-050000-
   EAST CENTRAL IOWA

CITY           SKY/WX    TMP DP  RH WIND       PRES   REMARKS
DAVENPORT      MOSUNNY   62  33  33 N21       29.86S
IOWA CITY      SUNNY     65  31  28 N20G28    29.89R
MT. PLEASANT * MOSUNNY   66  32  28 NW21G28   29.88S
MUSCATINE *    MOSUNNY   64  32  29 N16G29    29.87S
QUAD CITIES    MOSUNNY   62  32  32 N14       29.84R
$$

IAZ062-063-075>077-085>089-095>099-050000-
   SOUTHEAST IOWA

CITY           SKY/WX    TMP DP  RH WIND       PRES   REMARKS
BURLINGTON     MOSUNNY   62  33  33 N15G26    29.87S
FAIRFIELD *    SUNNY     64  32  29 N21       29.89S
FORT MADISON * MOSUNNY   64  34  32 NW21G28   29.88S
KEOKUK *       MOSUNNY   64  36  34 NW7G22    29.88F
OSKALOOSA *      N/A     66  30  26 NW18G30   29.91S
OTTUMWA        SUNNY     65  31  28 NW26      29.91R
WASHINGTON *   MOSUNNY   64  32  29 N24G32    29.89S
$$

ABBREVIATIONS USED IN REMARKS
   TC - TEMPERATURES IN CELSIUS
  WCI - WIND CHILL INDEX
   HX - HEAT INDEX
  VSB - VISIBILITY
$$




USA.gov is the U.S. government's official web portal to all federal, state and local government web resources and services.